User: anonymous   Login
Location: Unspecified
(0.0000°N, 0.0000°E)
Time: 10:11:00
(UTC+00:00)
Language:

OBJECT G - Orbit

View from above orbital plane
View from above orbital plane
View from above satellite
View from above satellite

Ground track
Ground track

The orbit data is extracted from the following two-line orbital elements,

1 44885U 19093G   21343.04338164  .00000680  00000-0  91136-4 0  9991
2 44885  97.9151  60.7207 0015996  93.0688 267.2338 14.82498451106632
Epoch (UTC): 09 December 2021 01:02:28
Eccentricity: 0.0015996
inclination: 97.9151°
perigee height: 610 km
apogee height: 632 km
right ascension of ascending node: 60.7207°
argument of perigee: 93.0688°
revolutions per day: 14.82498451
mean anomaly at epoch: 267.2338°
orbit number at epoch: 10663

The dashed part of the orbit path shows where the satellite is in the earth's shadow,  

DLR